CAPE
0 0 0 0 0 0 0 0 0 0 0 0 0 0 0 0 0 0 0 0 0 0 0 4 5 0 0 0 0 0 40 108 40 27 84 6 173 468 1051 1088 1225 1241 1463 1482
0 0 0 0 0 0 0 0 0 0 0 0 0 0 0 0 0 0 0 0 0 0 0 0 0 0 0 0 0 0 26 84 255 79 139 39 337 654 1086 1188 1293 1470 1497 1469
0 0 0 0 0 0 0 0 0 0 0 0 0 0 0 0 0 0 0 0 0 0 0 0 0 0 0 0 0 0 6 101 400 308 120 659 1080 1441 1273 1369 1495 1558 1497 1396
0 0 0 0 0 0 0 0 0 0 0 0 0 0 0 0 0 0 0 0 0 0 0 0 0 0 0 0 0 0 0 109 437 887 113 655 1144 1225 1364 1639 1567 1266 1391 1391
0 0 1 1 0 0 0 0 0 0 0 0 0 0 0 0 0 0 0 0 0 0 0 0 0 0 0 0 0 0 0 178 373 533 435 759 1277 1217 1400 1434 1700 1249 1306 1250
10 24 21 11 6 14 17 2 1 1 0 0 0 0 0 0 0 0 0 0 0 0 0 0 0 0 0 0 0 0 0 68 341 228 1021 1433 1581 1677 1763 1646 1081 1044 1079 1058
31 29 8 42 61 63 52 21 7 3 0 0 0 8 0 0 0 0 0 0 0 0 0 0 0 0 0 0 0 0 0 0 167 584 1128 1535 1992 2306 2218 1512 1131 1234 1257 1381
22 18 27 0 118 131 14 34 30 18 3 5 8 9 4 0 1 7 0 0 0 0 0 0 0 0 0 0 0 0 0 466 1016 1255 1562 1844 2161 2074 2227 1644 1840 1707 1621 1643
23 35 2 16 128 15 94 54 74 61 13 9 0 0 8 0 2 0 0 0 0 0 0 0 0 0 0 0 0 179 621 941 1409 1438 1745 2071 2145 2171 1956 2465 2207 1877 1782 1711
47 13 20 59 126 95 30 134 11 58 17 13 1 8 10 1 0 2 0 6 0 0 131 180 80 50 0 216 1016 1190 1277 1589 1641 1880 2063 2085 2460 2415 2387 2025 1781 1482 1486 1170
40 50 17 58 145 143 111 46 145 67 1 29 8 10 3 7 0 0 12 0 0 69 708 646 780 847 1404 1391 1864 1914 1805 1824 1785 1884 2238 2092 2144 2022 1811 1553 1289 1243 941 853
44 29 10 13 54 64 12 0 0 15 0 19 1 0 0 2 53 0 5 2 0 226 981 686 967 1307 1589 1762 1893 1995 1805 1940 1969 1845 1841 1764 1802 1492 1307 1143 994 832 702 608
40 33 47 21 47 53 49 83 39 76 14 3 3 1 0 25 59 16 4 1 0 0 1054 1007 1148 1891 1623 1806 1865 1853 1839 1734 1679 1599 1503 1406 1284 1160 1032 895 811 652 524 307
6 15 27 17 20 0 0 18 38 74 19 8 10 0 0 0 27 16 7 0 0 0 1180 980 1240 1602 1716 1675 1653 1503 1432 1385 1358 1226 1106 1060 996 936 845 698 525 309 235 182
7 3 29 35 27 32 37 47 30 8 0 9 0 0 0 0 0 0 0 0 0 0 135 1059 1066 1385 1644 1650 1450 1238 1148 979 851 795 785 780 719 568 381 247 186 169 160 159
7 1 24 14 7 15 43 69 35 7 0 0 1 0 0 0 0 0 0 0 0 0 0 1049 958 1351 1261 1380 1162 978 783 654 541 416 315 217 97 86 174 236 155 124 102 37
9 8 13 14 16 49 45 97 86 11 0 0 0 0 0 1 0 0 0 0 0 0 0 780 986 1145 1062 1088 896 743 518 236 89 51 34 84 107 186 186 141 106 102 69 20
1 11 18 5 10 2 28 46 50 32 0 0 0 0 0 0 0 0 0 0 0 0 0 604 939 1069 1096 977 721 486 63 16 18 20 52 109 141 136 113 71 52 105 164 216
1 7 1 14 8 0 7 37 47 86 67 6 0 14 37 0 0 0 0 0 0 0 2 477 1018 1338 1004 826 591 130 40 19 11 34 72 117 60 51 53 46 89 79 153 210
1 0 4 4 2 0 6 2 15 19 0 146 137 90 15 17 0 0 0 25 124 162 312 974 1329 1207 768 968 422 51 26 12 33 55 152 75 95 48 39 44 56 105 202 80
0 0 0 0 2 7 7 2 3 0 0 4 0 24 31 34 28 6 0 0 0 16 392 1100 1353 1147 947 711 197 18 11 94 147 115 111 118 50 90 66 127 76 39 96 30
0 0 2 2 1 1 0 2 0 4 0 1 1 3 20 17 1 0 0 0 0 107 1115 1065 1290 1146 886 555 82 18 81 212 214 175 123 99 48 68 68 82 146 127 243 341
2 0 0 0 0 1 14 5 7 7 3 1 3 0 4 12 0 0 6 0 77 300 869 1147 875 789 729 379 7 18 236 246 268 180 135 39 41 18 60 196 257 410 640 588
20 0 0 0 1 6 9 0 3 3 4 25 5 1 0 1 29 106 24 109 154 636 763 881 831 678 461 63 2 119 170 321 235 104 67 43 115 191 229 355 535 625 868 604
27 16 10 1 4 5 7 22 8 0 0 4 3 2 6 2 24 155 113 223 100 411 792 603 423 258 113 1 14 261 283 280 186 45 55 127 157 286 455 318 411 771 165 26
36 10 14 0 25 14 13 21 2 3 5 3 4 4 3 2 1 63 81 181 224 389 982 211 98 19 0 2 97 245 414 325 202 173 39 157 69 329 415 256 57 0 0 0
CIN
-0 -0 -0 -0 -0 -0 -0 -0 -0 -0 -0 -0 -0 -0 -0 -0 -0 -0 -0 -0 -0 -0 -0 -34 -45 -0 -0 -0 -0 -1 -306 -249 -257 -240 -217 -85 -126 -124 -154 -191 -176 -195 -216 -228
-0 -0 -0 -0 -0 -0 -0 -0 -0 -0 -0 -0 -0 -0 -0 -0 -0 -0 -0 -0 -0 -0 -0 -0 -0 -0 -0 -0 -0 -0 -326 -275 -247 -286 -294 -118 -84 -79 -120 -174 -205 -220 -219 -213
-0 -0 -0 -0 -0 -0 -0 -0 -0 -0 -0 -0 -0 -0 -0 -0 -0 -0 -0 -0 -0 -0 -0 -0 -0 -0 -0 -0 -0 -0 -79 -267 -236 -275 -253 -161 -116 -105 -118 -162 -205 -220 -219 -219
-0 -0 -0 -0 -0 -0 -0 -0 -0 -0 -0 -0 -0 -0 -0 -0 -0 -0 -0 -0 -0 -0 -0 -0 -0 -0 -0 -0 -0 -0 -0 -277 -230 -222 -263 -155 -104 -96 -115 -150 -179 -264 -227 -227
-0 -0 -6 -8 -2 -7 -0 -0 -0 -0 -0 -0 -0 -0 -0 -0 -0 -0 -0 -0 -0 -0 -0 -0 -0 -0 -0 -0 -0 -0 -0 -265 -273 -274 -224 -102 -116 -96 -134 -147 -173 -262 -245 -235
-7 -11 -8 -7 -10 -12 -12 -8 -6 -5 -0 -0 -0 -0 -0 -0 -0 -0 -0 -0 -0 -0 -0 -0 -0 -0 -0 -0 -0 -0 -0 -316 -278 -284 -183 -101 -111 -53 -95 -145 -282 -279 -258 -237
-7 -8 -21 -4 -10 -9 -8 -10 -8 -8 -4 -0 -0 -7 -0 -0 -0 -0 -0 -0 -0 -0 -0 -0 -0 -0 -0 -0 -0 -0 -0 -98 -302 -222 -159 -150 -106 -38 -47 -191 -238 -223 -191 -141
-6 -4 -7 -5 -4 -4 -46 -10 -9 -9 -13 -9 -15 -10 -16 -0 -1 -8 -0 -0 -0 -0 -0 -0 -0 -0 -0 -0 -0 -0 -0 -187 -173 -178 -143 -120 -74 -55 -37 -114 -89 -100 -94 -60
-7 -3 -7 -25 -5 -18 -4 -7 -10 -6 -20 -11 -4 -7 -19 -0 -17 -0 -0 -0 -0 -0 -0 -0 -0 -0 -0 -0 -0 -209 -140 -134 -129 -130 -94 -68 -69 -33 -41 -12 -16 -49 -34 -22
-9 -7 -5 -14 -4 -8 -29 -14 -24 -8 -7 -7 -5 -9 -33 -9 -0 -4 -4 -2 -0 -0 -111 -81 -139 -192 -0 -97 -82 -89 -77 -70 -78 -58 -46 -46 -14 -10 -14 -22 -14 -27 -29 -40
-10 -8 -4 -9 -5 -5 -6 -19 -8 -16 -3 -6 -12 -47 -64 -17 -0 -0 -10 -0 -0 -113 -22 -8 -10 -38 -43 -36 -12 -32 -44 -48 -63 -49 -19 -32 -22 -19 -30 -38 -43 -29 -34 -40
-7 -4 -5 -6 -12 -22 -23 -0 -31 -4 -1 -10 -1 -0 -0 -45 -9 -10 -6 -3 -0 -30 -8 -123 -125 -100 -13 -1 -8 -12 -32 -30 -20 -30 -34 -27 -28 -39 -53 -48 -41 -38 -35 -26
-2 -5 -3 -10 -9 -46 -14 -9 -7 -3 -12 -1 -3 -0 -0 -35 -12 -9 -3 -3 -0 -0 -3 -70 -94 -6 -1 -1 -2 -5 -8 -13 -16 -25 -34 -38 -56 -60 -44 -29 -22 -26 -31 -44
-4 -1 -4 -2 -10 -0 -0 -33 -12 -11 -3 -12 -5 -1 -0 -0 -28 -9 -3 -2 -0 -0 -4 -39 -32 -5 -3 -1 -2 -6 -7 -10 -18 -37 -59 -60 -51 -36 -32 -34 -36 -59 -66 -73
-1 -0 -3 -6 -4 -10 -9 -10 -4 -6 -2 -10 -3 -0 -0 -0 -0 -0 -0 -0 -0 -0 -8 -13 -15 -5 -13 -3 -6 -8 -22 -40 -58 -71 -67 -53 -52 -55 -70 -87 -93 -83 -70 -70
-0 -0 -2 -3 -4 -9 -9 -5 -4 -3 -0 -2 -4 -0 -0 -0 -0 -0 -0 -0 -0 -0 -0 -2 -19 -1 -13 -5 -3 -18 -38 -64 -79 -95 -105 -122 -150 -166 -116 -64 -74 -88 -92 -150
-0 -0 -2 -1 -5 -5 -4 -6 -4 -5 -0 -0 -0 -0 -0 -15 -0 -0 -0 -0 -0 -0 -0 -4 -20 -7 -23 -10 -7 -34 -69 -114 -146 -158 -172 -132 -130 -95 -80 -79 -102 -89 -95 -28
-0 -1 -1 -1 -12 -1 -8 -6 -10 -5 -0 -0 -0 -0 -0 -0 -0 -0 -0 -0 -0 -0 -0 -6 -16 -14 -17 -5 -14 -59 -140 -172 -156 -147 -124 -97 -95 -104 -104 -137 -148 -77 -23 -1
-0 -0 -0 -1 -1 -0 -32 -35 -32 -4 -15 -79 -0 -11 -6 -0 -0 -0 -0 -0 -0 -0 -2 -34 -20 -1 -10 -15 -35 -119 -132 -144 -156 -114 -101 -92 -149 -169 -191 -160 -106 -85 -3 -1
-0 -0 -0 -2 -1 -0 -6 -6 -1 -0 -0 -5 -4 -4 -5 -5 -0 -0 -0 -3 -29 -97 -97 -3 -2 -1 -20 -10 -62 -127 -119 -126 -103 -108 -68 -105 -97 -188 -213 -143 -128 -36 -2 -2
-0 -0 -0 -1 -0 -1 -3 -0 -0 -0 -0 -0 -0 -5 -4 -16 -12 -4 -0 -0 -0 -247 -120 -4 -3 -8 -19 -27 -93 -102 -113 -65 -68 -79 -71 -54 -149 -141 -175 -78 -73 -63 -9 -3
-0 -0 -1 -0 -0 -0 -0 -0 -0 -2 -0 -0 -0 -1 -1 -1 -3 -0 -0 -0 -0 -205 -1 -17 -7 -6 -3 -40 -95 -83 -57 -47 -53 -36 -52 -70 -135 -128 -116 -60 -10 -5 -3 -1
-0 -0 -0 -0 -0 -1 -0 -0 -0 -0 -0 -0 -0 -0 -3 -0 -0 -11 -3 -0 -183 -127 -8 -14 -1 -3 -20 -48 -12 -97 -25 -36 -29 -34 -40 -116 -102 -138 -45 -3 -1 -1 -1 -0
-1 -0 -0 -0 -1 -0 -0 -0 -0 -0 -0 -0 -1 -18 -1 -2 -7 -41 -6 -90 -125 -5 -15 -2 -4 -20 -42 -93 -1 -23 -25 -9 -18 -34 -55 -63 -9 -6 -3 -2 -1 -1 -0 -2
-2 -1 -2 -0 -0 -0 -0 -0 -0 -0 -0 -0 -0 -0 -4 -0 -37 -20 -55 -64 -113 -29 -66 -1 -24 -55 -84 -2 -66 -4 -7 -22 -13 -58 -42 -8 -2 -1 -4 -53 -51 -1 -46 -27
-1 -3 -0 -0 -0 -0 -0 -0 -0 -0 -0 -0 -0 -0 -0 -0 -0 -57 -106 -43 -47 -35 -20 -17 -69 -100 -0 -2 -31 -5 -9 -23 -9 -18 -32 -5 -18 -2 -3 -8 -61 -0 -0 -0
Wind_Speed
28 33 34 34 35 42 46 50 57 54 46 43 51 51 62 56 51 49 52 49 53 54 47 45 44 34 33 34 33 32 32 32 28 28 27 26 24 22 17 15 12 10 7 7
33 34 32 35 37 41 44 49 55 54 52 45 48 52 62 52 53 50 48 54 54 48 47 45 43 40 40 38 37 36 35 34 30 28 27 25 23 18 15 12 11 8 6 6
35 36 37 37 36 38 41 45 50 54 49 49 50 57 59 55 54 49 49 51 52 53 54 52 49 46 43 41 38 38 35 35 30 26 24 22 21 18 12 11 8 6 5 5
38 36 35 36 40 40 46 40 45 47 50 57 50 68 55 51 52 52 51 49 48 48 47 49 52 52 50 46 42 39 38 34 29 25 22 18 16 15 12 10 7 6 4 5
39 39 40 43 42 37 45 43 45 46 49 52 56 60 62 48 49 48 48 50 51 46 43 45 48 49 47 43 39 36 33 30 26 20 18 15 14 13 11 8 7 5 5 4
36 31 36 39 41 38 40 40 44 44 48 57 55 58 63 56 51 45 41 41 39 39 41 41 42 42 40 36 33 28 26 24 21 19 15 15 12 13 9 7 6 5 4 4
37 36 26 31 35 30 29 36 44 47 50 57 48 57 57 50 51 49 48 44 42 35 37 36 35 35 34 33 26 24 22 23 19 15 13 12 12 10 6 4 2 2 3 2
33 33 27 27 27 31 24 29 38 48 47 48 42 54 51 47 43 32 35 36 36 31 29 31 29 28 29 23 21 20 18 17 13 11 10 9 6 6 4 2 2 2 1 1
30 27 35 32 25 27 30 31 26 40 44 48 45 49 49 47 40 37 33 25 25 28 29 30 30 29 27 23 18 15 14 11 9 8 6 6 5 4 3 1 0 1 2 3
31 40 33 30 25 27 6 30 27 21 40 43 39 41 40 40 44 27 24 18 23 27 28 29 26 25 20 17 15 13 8 7 6 4 3 3 3 3 2 1 1 3 4 4
15 32 35 33 29 31 10 6 7 19 32 33 37 31 32 17 38 32 20 17 22 24 25 24 20 15 15 13 7 5 3 3 3 3 4 5 6 5 5 3 4 4 4 5
15 11 14 31 31 5 23 27 29 34 30 35 41 39 31 29 17 29 13 16 20 19 20 20 22 18 12 6 3 3 3 5 6 6 7 8 9 7 6 6 5 5 5 5
19 7 1 24 27 17 21 29 28 29 30 36 29 27 20 5 7 11 13 18 21 19 14 15 16 17 9 6 5 5 5 6 9 8 8 9 8 7 6 5 6 6 6 6
14 7 9 29 36 17 23 26 28 30 31 34 34 30 31 28 12 17 17 22 22 18 12 11 15 16 9 7 6 6 6 7 8 8 8 7 7 6 6 6 6 6 6 7
6 6 10 30 39 42 38 35 34 36 39 39 36 33 31 29 28 25 23 23 21 18 14 13 18 16 13 9 7 6 7 8 9 8 7 6 6 6 6 6 6 7 7 7
6 11 14 23 30 32 40 40 39 40 44 43 40 38 35 35 35 34 30 27 25 22 18 14 17 17 14 12 7 6 7 8 7 6 5 6 6 6 7 8 8 9 9 8
4 6 10 12 16 16 14 24 37 40 44 45 43 39 36 34 34 33 32 30 28 27 23 16 17 21 17 18 6 8 8 8 7 6 7 7 6 7 8 10 11 11 9 11
5 9 11 11 9 7 8 11 11 30 36 42 40 40 38 37 35 34 33 31 28 27 25 17 21 24 24 14 9 9 11 9 7 6 6 7 9 8 9 11 11 9 10 9
7 8 7 9 9 12 14 10 12 24 34 38 43 40 37 34 32 32 32 31 29 26 28 22 24 20 11 8 13 13 11 8 7 7 6 7 8 10 11 10 10 10 11 9
10 8 9 10 5 7 13 14 21 22 34 21 26 34 37 31 31 27 24 23 22 22 21 26 16 17 14 23 14 13 10 8 8 5 7 8 10 10 13 12 9 12 11 8
3 10 5 8 9 3 14 16 17 21 23 24 25 27 27 32 28 28 24 24 23 24 25 23 13 10 27 16 15 14 9 7 7 8 9 8 9 11 13 11 9 11 9 6
10 7 8 7 5 7 19 7 1 26 33 31 31 30 29 31 30 28 28 25 24 26 27 18 12 22 15 15 17 10 8 8 8 10 13 9 9 12 12 10 9 11 6 6
13 15 15 16 4 6 11 10 16 23 30 33 33 32 29 30 31 30 27 26 25 26 29 27 13 11 11 15 13 12 8 8 10 16 11 13 14 12 11 10 7 8 6 8
20 17 16 14 20 6 12 19 26 20 19 15 21 25 28 28 28 28 25 26 27 29 31 22 12 11 12 13 13 13 10 14 14 11 14 15 13 13 14 11 8 9 7 7
20 14 9 3 3 10 19 20 18 17 17 15 18 21 24 25 25 23 22 25 30 31 35 21 11 9 11 13 14 13 18 14 14 14 16 17 14 14 10 9 11 9 10 13
22 14 23 13 20 20 9 21 17 15 15 15 19 21 22 24 24 22 22 22 32 27 23 11 9 8 12 14 16 15 12 14 13 16 19 18 15 14 13 10 8 9 8 8
Wind_Direction
306 291 283 283 282 278 277 273 270 271 273 270 264 264 259 261 261 263 260 259 257 259 262 263 266 267 272 276 278 280 283 289 294 293 294 293 293 292 292 289 283 277 270 259
303 291 291 287 283 282 279 275 272 273 270 274 270 267 263 264 261 261 263 259 259 261 262 263 264 270 274 276 277 278 282 285 290 292 295 293 293 291 289 288 285 274 261 254
300 297 296 290 285 282 280 277 275 273 275 270 270 267 264 263 262 263 262 262 262 262 262 262 266 269 274 276 276 276 280 283 287 287 292 293 292 294 286 286 287 274 256 257
301 301 294 289 283 282 277 281 280 278 271 265 264 264 265 264 263 262 262 262 263 264 266 266 266 270 271 273 275 278 278 280 282 283 281 281 285 283 278 284 284 277 269 284
302 299 291 286 285 285 280 282 280 277 274 269 263 262 261 263 263 263 262 262 263 265 266 267 267 268 271 273 274 275 275 275 277 278 275 273 275 281 288 282 292 284 300 296
306 310 298 291 288 285 285 283 280 276 273 266 262 260 259 257 260 267 268 265 267 267 267 268 269 270 271 274 275 274 271 269 271 274 271 269 267 276 283 281 279 280 293 301
311 307 316 307 301 285 284 279 277 272 267 267 265 262 261 263 260 265 267 265 263 268 270 269 270 271 273 271 272 272 271 269 269 267 265 256 266 269 271 283 239 251 288 295
314 306 320 322 302 299 287 280 275 274 272 273 268 261 262 259 260 261 274 270 267 267 270 272 271 273 275 274 269 269 269 267 264 265 256 251 241 246 255 213 206 296 302 107
320 311 293 286 297 298 291 284 289 276 280 278 272 274 266 252 255 261 265 267 266 265 267 269 270 271 271 268 266 266 268 263 261 253 243 232 229 224 217 210 315 91 36 56
314 284 292 285 295 277 266 292 294 273 274 272 271 271 267 240 242 248 254 268 275 270 269 268 269 266 264 265 269 268 261 256 251 229 211 185 171 147 124 97 41 61 68 49
251 268 276 280 283 290 336 314 236 281 265 274 260 278 232 222 233 238 258 272 280 274 268 265 266 266 263 262 259 254 225 205 197 150 125 116 110 108 106 75 70 42 40 34
253 244 226 244 265 176 302 246 245 235 262 236 250 256 249 243 194 211 248 273 282 292 276 265 259 260 249 240 219 188 155 131 124 113 108 106 105 99 88 81 56 52 45 43
0 21 261 233 225 299 309 255 246 239 232 213 223 213 237 181 138 218 254 275 281 287 282 269 252 241 226 208 191 162 139 123 112 109 106 102 95 87 76 60 55 57 40 38
344 311 237 230 243 313 322 282 262 234 228 223 224 235 247 254 267 243 268 270 272 282 295 265 241 238 216 188 163 153 131 117 111 108 101 93 83 72 59 57 49 36 54 58
9 295 235 236 254 269 276 267 262 244 240 234 241 244 237 245 249 270 262 270 257 257 274 245 228 224 219 216 193 147 122 113 109 101 91 77 63 53 53 51 60 68 67 62
60 221 223 230 237 240 267 271 261 249 244 246 248 247 251 246 255 253 254 253 250 253 258 241 226 222 216 209 176 140 123 111 101 87 68 62 59 58 63 71 72 82 71 44
138 165 190 213 216 214 220 224 262 257 249 253 246 252 257 254 246 245 248 252 249 245 247 244 220 216 212 218 176 132 116 105 94 76 69 63 47 48 69 82 90 91 61 86
100 176 193 201 202 157 179 178 202 273 266 261 260 253 252 249 248 245 245 246 245 241 241 239 215 212 214 217 133 118 111 103 90 74 65 64 77 62 74 91 91 67 75 68
87 144 163 175 175 211 231 10 352 297 264 263 255 254 248 242 244 241 238 237 236 237 238 228 212 210 194 176 122 117 110 100 86 77 60 48 53 79 82 88 82 80 84 63
66 110 162 199 144 102 50 20 316 305 251 273 258 247 232 236 226 227 229 230 242 244 238 217 203 206 143 138 120 118 109 98 89 53 42 51 79 66 101 94 79 91 80 55
113 79 151 209 205 137 40 17 315 268 247 275 259 248 235 224 228 242 236 241 244 238 230 207 151 177 140 126 120 118 107 90 76 66 62 65 62 79 96 84 82 86 81 27
74 65 73 67 106 154 12 15 333 271 270 263 251 239 232 230 231 233 233 239 237 225 212 199 180 134 133 122 122 112 103 85 73 76 92 56 57 85 87 83 75 89 37 330
40 32 27 26 7 360 11 249 250 254 258 252 239 226 230 228 226 230 236 234 230 225 205 203 181 150 130 121 119 116 96 85 88 105 68 73 87 68 73 73 58 60 50 299
10 18 17 24 356 337 272 273 314 277 280 269 224 225 222 224 225 229 232 230 225 214 200 196 159 145 125 118 118 115 103 103 99 77 78 88 69 69 84 70 320 305 0 320
4 26 22 317 310 21 308 286 285 268 277 257 234 227 226 229 226 229 230 227 220 214 184 188 168 148 124 118 120 116 117 100 94 86 88 91 77 77 36 322 292 309 301 271
12 26 3 27 293 290 263 295 290 267 273 252 235 227 226 225 226 231 226 237 220 192 198 175 167 144 119 118 121 117 104 99 92 92 105 101 84 82 65 39 355 332 319 306